Regional Weather Roundup
Issued by NWS

Home | Current Version | Previous Version | Text Only | Print | Product List | Glossary Off
Versions: 1 2 3 4 5 6 7 8 9 10 11 12 13 14 15 16 17 18 19 20 21 22 23 24 25 26 27 28 29 30 31 32 33 34 35 36 37 38 39 40 41 42 43 44 45 46 47 48 49 50

000
ASUS45 KBOI 241410
RWRID

IDAHO REGIONAL WEATHER ROUNDUP
NATIONAL WEATHER SERVICE BOISE ID
800 AM MDT SUN MAY 24 2015

NOTE: "FAIR" INDICATES FEW OR NO CLOUDS BELOW 12000 FEET
WITH NO SIGNIFICANT WEATHER AND/OR OBSTRUCTIONS TO VISIBILITY

IDZ012-014-241500-
SOUTHWEST IDAHO


CITY           SKY/WX    TMP DP  RH WIND       PRES   REMARKS
BOISE          PTSUNNY   59  50  72 S6        29.96R
CALDWELL       MOSUNNY   61  46  59 NE6       29.97R
MOUNTAIN HOME  MOSUNNY   56  49  77 NE6       29.95S
$$

IDZ016-017-241500-
SOUTHCENTRAL IDAHO


CITY           SKY/WX    TMP DP  RH WIND       PRES   REMARKS
BURLEY         CLOUDY    49  47  93 W5        29.98R
JEROME         CLOUDY    52  49  89 SE3       29.99R
TWIN FALLS     CLOUDY    53  50  89 S5        29.96S
$$

IDZ019>023-241500-
SOUTHEAST IDAHO


CITY           SKY/WX    TMP DP  RH WIND       PRES   REMARKS
IDAHO FALLS    FOG       44  44 100 E7        29.99S VSB<1/4
POCATELLO      FOG       48  48 100 W5        29.99S VSB 1/2
REXBURG        PTSUNNY   48  43  82 CALM      30.00S
$$

IDZ006-010-011-018-031-032-241500-
CENTRAL IDAHO MOUNTAINS


CITY           SKY/WX    TMP DP  RH WIND       PRES   REMARKS
MCCALL         SUNNY     50  40  68 N5        30.01S
HAILEY         MOSUNNY   46  43  87 N6        30.01F
STANLEY          N/A     42  38  85 CALM      30.06F
SALMON         CLOUDY    50  46  87 CALM      30.03S
CHALLIS        PTSUNNY   50  41  71 NW5       30.02S
$$

IDZ002-004-006-007-026-241500-
NORTHERN IDAHO


CITY           SKY/WX    TMP DP  RH WIND       PRES   REMARKS
LEWISTON       SUNNY     56  53  90 SE6       30.00S
LOWELL           N/A     53  49  86 N3        30.05S
COEUR D`ALENE  SUNNY     57  48  72 NE3       30.01S
MULLAN PASS    MOSUNNY   50  37  61 CALM      30.10F
$$


USA.gov is the U.S. government's official web portal to all federal, state and local government web resources and services.